Probability
0 0 0 0 0 0 0 0 0 0 0 0 0 0 0 0 0 0 0 0 0 0 0 0 0 0 0 0 0 0 0 0 0 0 0 0 0 0 0 0 0 0 0 0
0 0 0 0 0 0 0 0 0 0 0 0 0 0 0 0 0 0 0 0 0 0 0 0 0 0 0 0 0 0 0 0 0 0 0 0 0 0 0 0 0 0 0 0
0 0 0 0 0 0 0 0 0 0 0 0 0 0 0 0 0 0 0 0 0 0 0 0 0 0 0 0 0 0 0 0 0 0 0 0 0 0 0 0 0 0 0 0
0 0 0 0 0 0 0 0 0 0 0 0 0 0 0 0 0 0 0 0 0 0 0 0 0 0 0 0 0 0 0 0 0 0 0 0 0 0 0 0 0 0 0 0
0 0 0 0 0 0 0 0 0 0 0 0 0 0 0 0 0 0 0 0 0 0 0 0 0 0 0 0 0 0 0 0 0 0 0 0 0 0 0 0 0 0 0 0
0 0 0 0 0 0 0 0 0 0 0 0 0 0 0 0 0 0 0 0 0 0 0 0 0 0 0 0 0 0 0 0 0 0 0 0 0 0 0 0 0 0 0 0
0 0 0 0 0 0 0 0 0 0 0 0 0 0 0 0 0 0 0 0 0 0 0 0 0 0 0 0 0 0 0 0 0 0 0 0 0 0 0 0 0 0 0 0
0 0 0 0 0 0 0 0 0 0 0 0 0 0 0 0 0 0 0 0 0 0 0 0 0 0 0 0 0 0 0 0 0 0 0 0 0 0 0 0 0 0 0 0
0 0 0 0 0 0 0 0 0 0 0 0 0 0 0 0 0 0 0 0 0 0 0 0 0 0 0 0 0 0 0 0 0 0 0 0 0 0 0 0 0 0 0 0
0 0 0 0 0 0 0 0 0 0 0 0 0 0 0 0 0 0 0 0 0 0 0 0 0 0 0 0 0 0 0 0 0 0 0 0 0 0 0 0 0 0 0 0
0 0 0 0 0 0 0 0 0 0 0 0 0 0 0 0 0 0 0 0 0 0 0 0 0 0 0 0 0 0 0 0 0 0 0 0 0 0 0 0 0 0 0 0
0 0 0 0 0 0 0 0 0 0 0 0 0 0 0 0 0 0 0 0 0 0 0 0 0 0 0 0 0 0 0 0 0 0 0 0 0 0 0 0 0 0 0 0
0 0 0 0 0 0 0 0 0 0 0 0 0 0 0 0 0 0 0 0 0 0 0 0 0 0 0 0 0 0 0 0 0 0 0 0 0 0 0 0 0 0 0 0
0 0 0 0 0 0 0 0 0 0 0 0 0 0 0 0 0 0 0 0 0 0 0 0 0 0 0 0 0 0 0 0 0 0 0 0 0 0 0 0 0 0 0 0
0 0 0 0 0 0 0 0 0 0 0 0 0 0 0 0 0 0 0 0 0 0 0 0 0 0 0 0 0 0 0 0 0 0 0 0 0 0 0 0 0 0 0 0
0 0 0 0 0 0 0 0 0 0 0 0 0 0 0 0 0 0 0 0 0 0 0 0 0 0 0 0 0 0 0 0 0 0 0 0 0 0 0 0 0 0 0 0
0 0 0 0 0 0 0 0 0 0 0 0 0 0 0 0 0 0 0 0 0 0 0 0 0 0 0 0 0 0 0 0 0 0 0 0 0 0 0 0 0 0 0 0
0 0 0 0 0 0 0 0 0 0 0 0 0 0 0 0 0 0 0 0 0 0 0 0 0 0 0 0 0 0 0 0 0 0 0 0 0 0 0 0 0 0 0 0
0 0 0 0 0 0 0 0 0 0 0 0 0 0 0 0 0 0 0 0 0 0 0 0 0 0 0 0 0 0 0 0 0 0 0 0 0 0 0 0 0 0 0 0
0 0 0 0 0 0 0 0 0 0 0 0 0 0 0 0 0 0 0 0 0 0 0 0 0 0 0 0 0 0 0 0 0 0 0 0 0 0 0 0 0 0 0 0
0 0 0 0 0 0 0 0 0 0 0 0 0 0 0 0 0 0 0 0 0 0 0 0 0 0 0 0 0 0 0 0 0 0 0 0 0 0 0 0 0 0 0 0
0 0 0 0 0 0 0 0 0 0 0 0 0 0 0 0 0 0 0 0 0 0 0 0 0 0 0 0 0 0 0 0 0 0 0 0 0 0 0 0 0 0 0 0
0 0 0 0 0 0 0 0 0 0 0 0 0 0 0 0 0 0 0 0 0 0 0 0 0 0 0 0 0 0 0 0 0 0 0 0 0 0 0 0 0 0 0 0
0 0 0 0 0 0 0 0 0 0 0 0 0 0 0 0 0 0 0 0 0 0 0 0 0 0 0 0 0 0 0 0 0 0 0 0 0 0 0 0 0 0 0 0
0 0 0 0 0 0 0 0 0 0 0 0 0 0 0 0 0 0 0 0 0 0 0 0 0 0 0 0 0 0 0 0 0 0 0 0 0 0 0 0 0 0 0 0
0 0 0 0 0 0 0 0 0 0 0 0 0 0 0 0 0 0 0 0 0 0 0 0 0 0 0 0 0 0 0 0 0 0 0 0 0 0 0 0 0 0 0 0
Height
5691 5694 5698 5703 5706 5709 5710 5713 5716 5721 5723 5724 5725 5729 5737 5739 5741 5745 5749 5753 5756 5760 5763 5765 5768 5771 5773 5776 5778 5780 5781 5783 5784 5785 5787 5788 5789 5789 5790 5790 5790 5790 5790 5790
5684 5687 5693 5694 5696 5699 5701 5703 5707 5712 5713 5713 5715 5719 5725 5729 5732 5736 5739 5743 5747 5751 5754 5757 5760 5763 5766 5768 5770 5772 5774 5775 5777 5778 5780 5781 5782 5782 5783 5783 5783 5783 5783 5783
5676 5682 5684 5685 5687 5689 5692 5695 5699 5701 5703 5704 5705 5708 5715 5720 5722 5725 5729 5733 5737 5741 5745 5748 5751 5754 5757 5760 5762 5764 5766 5767 5769 5770 5771 5773 5773 5774 5775 5776 5776 5776 5776 5775
5668 5672 5674 5676 5678 5681 5684 5688 5689 5690 5691 5694 5696 5695 5706 5711 5713 5716 5720 5724 5728 5732 5735 5738 5741 5744 5748 5750 5753 5755 5757 5759 5760 5762 5763 5765 5766 5767 5767 5767 5768 5768 5768 5767
5660 5664 5666 5668 5671 5673 5676 5679 5680 5680 5681 5682 5686 5685 5693 5700 5704 5708 5712 5715 5718 5722 5725 5728 5731 5735 5738 5740 5743 5745 5747 5749 5751 5753 5755 5756 5758 5759 5759 5759 5759 5759 5759 5759
5653 5655 5657 5660 5663 5665 5666 5669 5670 5670 5670 5671 5678 5676 5681 5692 5697 5700 5703 5705 5708 5712 5715 5718 5721 5724 5727 5730 5732 5735 5737 5740 5742 5743 5745 5747 5749 5749 5750 5750 5750 5750 5751 5751
5646 5647 5649 5652 5654 5656 5658 5660 5660 5659 5659 5662 5669 5666 5673 5684 5688 5691 5693 5696 5698 5700 5703 5707 5710 5713 5716 5719 5722 5724 5727 5729 5731 5733 5735 5737 5739 5739 5740 5741 5741 5741 5742 5742
5637 5640 5642 5644 5646 5648 5649 5651 5652 5651 5651 5654 5656 5657 5667 5673 5677 5680 5683 5686 5687 5690 5692 5696 5699 5702 5705 5708 5711 5713 5716 5718 5720 5722 5725 5727 5728 5729 5731 5731 5732 5732 5732 5732
5629 5631 5634 5636 5637 5639 5640 5641 5643 5643 5641 5642 5643 5648 5656 5663 5667 5670 5673 5675 5677 5679 5681 5684 5688 5690 5693 5696 5699 5702 5704 5707 5710 5712 5714 5716 5717 5719 5720 5721 5721 5722 5722 5722
5621 5622 5625 5626 5628 5629 5631 5632 5633 5632 5631 5631 5633 5639 5646 5653 5656 5660 5662 5664 5665 5668 5670 5673 5676 5679 5682 5685 5688 5690 5693 5696 5698 5701 5703 5705 5707 5708 5709 5710 5711 5712 5712 5712
5613 5614 5616 5617 5619 5621 5622 5623 5623 5623 5623 5623 5623 5632 5638 5642 5645 5648 5650 5652 5654 5656 5658 5661 5664 5667 5670 5673 5676 5679 5682 5684 5687 5689 5692 5694 5696 5697 5698 5699 5700 5701 5701 5701
5606 5605 5606 5608 5611 5611 5611 5613 5614 5615 5615 5614 5614 5622 5629 5631 5633 5635 5638 5640 5642 5644 5646 5649 5652 5655 5658 5661 5664 5667 5670 5673 5675 5678 5680 5682 5684 5685 5687 5688 5689 5690 5690 5690
5597 5597 5597 5598 5602 5602 5601 5603 5604 5605 5604 5604 5604 5612 5620 5621 5622 5623 5625 5627 5629 5631 5634 5637 5640 5643 5646 5649 5652 5655 5658 5661 5663 5665 5667 5669 5671 5673 5675 5677 5677 5678 5678 5678
5588 5588 5589 5590 5590 5591 5592 5593 5594 5593 5592 5593 5596 5602 5609 5610 5611 5612 5614 5614 5616 5619 5622 5625 5628 5630 5633 5636 5639 5642 5645 5648 5650 5653 5655 5657 5659 5661 5662 5664 5665 5666 5666 5667
5578 5578 5578 5579 5580 5579 5580 5581 5582 5582 5583 5583 5587 5590 5597 5598 5598 5600 5601 5602 5604 5606 5609 5612 5615 5617 5620 5623 5626 5629 5632 5635 5637 5640 5643 5645 5647 5648 5650 5651 5653 5653 5654 5655
5568 5567 5568 5568 5570 5568 5567 5570 5571 5572 5573 5573 5575 5579 5586 5585 5585 5587 5589 5590 5592 5594 5596 5599 5601 5604 5607 5610 5613 5616 5619 5622 5625 5628 5631 5633 5634 5636 5637 5639 5640 5641 5642 5642
5559 5558 5557 5557 5558 5555 5557 5563 5562 5562 5563 5564 5564 5571 5574 5573 5573 5574 5576 5577 5579 5581 5583 5586 5588 5591 5595 5597 5600 5603 5606 5609 5612 5615 5618 5620 5621 5623 5624 5626 5627 5628 5629 5629
5549 5548 5546 5546 5546 5544 5552 5552 5552 5551 5553 5554 5555 5558 5560 5560 5560 5561 5564 5565 5566 5568 5570 5572 5575 5578 5581 5584 5587 5589 5592 5595 5598 5601 5604 5606 5608 5610 5611 5612 5614 5615 5615 5616
5540 5538 5536 5535 5533 5533 5541 5543 5542 5540 5542 5545 5544 5545 5546 5546 5546 5550 5552 5551 5552 5555 5557 5559 5562 5565 5568 5571 5573 5576 5579 5582 5585 5588 5590 5592 5594 5596 5598 5599 5601 5601 5602 5602
5530 5528 5527 5525 5523 5523 5532 5534 5531 5530 5531 5535 5532 5532 5533 5532 5533 5539 5539 5538 5540 5542 5543 5546 5548 5551 5554 5557 5559 5562 5565 5568 5571 5574 5576 5578 5580 5582 5584 5586 5586 5587 5588 5589
5520 5518 5517 5515 5512 5514 5522 5523 5520 5520 5523 5522 5520 5520 5520 5520 5522 5524 5525 5526 5527 5529 5531 5533 5535 5538 5541 5543 5546 5549 5552 5555 5557 5559 5561 5564 5566 5568 5569 5571 5572 5573 5573 5574
5509 5508 5508 5506 5504 5509 5513 5511 5510 5510 5510 5509 5508 5508 5508 5509 5510 5511 5512 5514 5515 5517 5519 5520 5522 5525 5528 5530 5532 5536 5539 5541 5543 5545 5547 5549 5551 5553 5555 5556 5557 5558 5559 5559
5499 5500 5498 5497 5499 5501 5500 5499 5498 5498 5498 5498 5497 5497 5497 5497 5498 5500 5501 5502 5503 5504 5506 5508 5509 5512 5514 5516 5519 5522 5524 5526 5528 5531 5533 5535 5537 5539 5540 5542 5543 5544 5545 5545
5490 5489 5487 5486 5488 5489 5489 5488 5487 5487 5486 5486 5486 5486 5486 5486 5487 5488 5489 5490 5491 5492 5493 5495 5497 5499 5501 5503 5505 5508 5510 5512 5514 5517 5520 5522 5524 5525 5526 5528 5529 5530 5531 5532
5479 5478 5477 5476 5479 5478 5478 5477 5476 5476 5475 5475 5475 5475 5475 5475 5475 5476 5477 5478 5479 5480 5481 5482 5483 5485 5487 5489 5492 5494 5496 5498 5500 5503 5506 5508 5510 5511 5513 5514 5515 5516 5517 5517
5470 5468 5467 5466 5468 5465 5466 5466 5465 5464 5464 5464 5464 5464 5464 5463 5463 5464 5465 5466 5466 5467 5468 5469 5471 5472 5474 5476 5478 5480 5482 5484 5487 5489 5492 5494 5495 5497 5498 5500 5501 5501 5503 5503
Wind_Speed
41 43 44 43 44 43 43 43 44 41 41 43 45 46 43 43 43 41 40 40 40 38 38 38 37 37 36 35 33 32 32 31 31 30 29 29 29 29 29 29 29 29 29 29
41 42 42 43 44 45 45 45 44 42 42 44 46 46 44 43 44 43 43 42 42 41 40 39 39 38 37 36 35 34 33 33 32 32 31 31 31 31 30 30 30 30 30 30
39 40 41 43 44 46 47 46 45 44 43 46 48 47 44 44 45 45 44 43 43 42 42 41 41 41 40 38 37 36 35 35 35 34 34 33 33 32 32 32 32 32 32 32
39 39 42 44 45 46 47 46 46 47 47 47 48 50 45 44 45 46 44 44 43 43 43 43 43 43 42 41 40 39 38 38 37 37 36 35 34 34 34 34 34 34 33 33
38 39 41 42 44 45 46 46 47 48 50 50 49 52 47 44 44 44 44 44 44 45 45 44 44 44 44 43 43 41 40 40 40 39 38 37 36 36 36 36 36 36 35 35
38 39 40 40 41 43 44 44 46 47 49 52 49 51 49 43 41 41 42 43 44 45 46 46 46 45 45 45 45 44 42 41 41 41 40 40 39 38 38 38 38 37 37 36
37 40 40 40 41 42 42 43 45 47 48 51 49 51 50 43 41 41 41 42 42 44 46 46 47 47 47 46 46 46 44 43 43 43 42 42 41 41 40 40 40 39 38 38
37 38 40 41 41 43 42 43 43 44 46 48 49 51 49 45 42 40 41 42 43 44 46 46 47 47 48 48 47 47 46 45 45 44 44 43 42 42 41 41 41 41 40 40
37 37 38 39 40 41 43 44 44 44 45 47 48 48 48 45 43 41 41 42 43 44 46 46 47 47 48 49 49 48 48 47 46 46 45 45 44 43 42 42 42 42 42 42
37 38 36 37 39 39 40 41 43 44 44 46 48 47 46 44 43 42 42 43 44 45 46 46 47 48 49 50 49 49 49 48 48 47 46 45 45 44 45 44 43 43 43 44
37 39 38 38 39 39 40 41 43 45 46 47 47 46 43 43 43 42 42 42 44 45 46 47 47 49 49 50 50 50 49 48 48 47 47 46 46 46 45 45 44 44 45 45
37 39 40 39 38 39 40 41 42 44 47 49 49 46 40 40 41 42 43 43 43 44 45 46 46 48 48 49 49 50 49 49 48 48 48 47 47 47 46 46 45 45 45 45
37 38 39 39 39 40 41 41 42 44 47 49 51 48 40 40 41 41 42 42 42 44 44 45 45 46 47 48 48 49 50 50 49 49 49 48 48 48 47 47 46 46 46 46
37 38 38 39 39 40 41 41 41 43 46 49 50 47 42 41 41 42 43 43 43 44 45 45 45 46 47 48 48 48 49 50 50 50 50 49 49 48 48 48 48 47 47 47
37 38 38 39 38 40 41 41 41 43 44 46 47 47 43 43 43 42 43 44 45 44 45 46 46 46 47 48 48 49 49 50 51 51 50 49 49 49 48 49 49 49 48 48
38 40 41 41 39 41 42 41 41 43 44 46 46 45 42 43 43 42 42 44 45 45 45 46 46 46 46 48 48 49 50 51 52 52 51 51 50 49 49 49 49 50 50 49
38 39 41 42 41 42 42 39 40 42 43 44 45 43 42 44 43 43 43 44 44 45 47 48 48 47 47 48 48 49 49 51 51 52 53 52 51 51 50 51 51 51 51 51
40 40 41 42 42 44 39 38 39 40 40 41 44 43 45 46 46 46 45 46 46 46 47 48 48 48 48 49 50 51 51 51 51 52 52 51 51 52 52 53 53 53 53 53
39 40 41 43 44 44 39 37 38 40 40 39 41 43 44 46 48 47 46 47 47 47 47 48 48 49 49 50 51 51 52 52 51 50 51 51 51 52 53 53 53 53 54 53
38 39 41 43 44 44 39 36 37 40 40 37 40 42 43 45 47 45 45 46 46 47 47 48 48 49 49 50 51 51 51 53 52 51 51 51 51 51 52 53 53 54 54 54
37 39 41 43 44 43 39 37 38 40 38 37 40 42 42 43 44 44 44 44 44 44 46 47 48 48 48 50 50 51 51 51 51 50 51 51 51 52 52 53 53 53 53 54
36 37 39 41 43 41 38 39 39 39 38 38 38 40 41 42 42 43 43 42 43 43 44 45 46 47 47 48 49 50 50 51 51 50 50 50 50 51 52 52 52 52 53 53
38 37 38 39 40 38 38 38 38 38 38 37 38 39 40 41 41 41 41 42 42 42 42 43 45 46 47 48 48 48 49 50 50 49 49 49 50 50 50 51 51 51 51 52
37 36 37 38 36 36 37 38 38 38 38 37 38 39 40 41 42 42 42 42 42 42 42 42 44 46 46 46 46 46 47 47 48 49 48 48 49 49 49 50 50 50 50 50
37 37 38 37 35 36 36 37 38 39 40 39 38 39 40 40 41 41 41 41 42 42 43 43 44 44 45 45 46 46 47 47 47 48 49 49 49 49 49 49 49 50 51 51
35 37 38 37 36 38 36 37 39 39 40 40 40 40 40 40 41 41 41 41 41 41 41 42 43 43 43 44 45 45 46 46 47 48 48 48 48 49 49 49 49 49 50 50
Wind_Direction
244 244 244 246 246 247 249 250 249 248 248 249 249 248 245 246 247 247 245 245 245 244 243 243 244 244 245 246 247 249 250 252 254 255 257 259 260 262 264 266 268 270 272 274
246 246 246 247 247 247 248 249 250 249 249 250 250 249 247 246 248 248 247 245 245 244 243 244 244 245 246 246 247 248 250 251 253 255 256 258 260 262 264 265 267 269 271 273
250 248 247 247 247 248 248 250 252 252 251 252 253 250 248 247 247 248 248 246 245 244 244 244 245 246 246 246 247 248 249 251 253 255 256 259 261 262 263 264 266 268 270 272
249 248 248 248 248 250 251 252 253 254 254 253 254 255 248 248 248 248 247 247 246 245 245 245 245 246 247 247 248 248 249 251 253 255 257 259 261 262 263 264 266 267 270 272
251 249 249 249 250 251 253 253 254 255 256 255 254 256 251 248 248 249 249 248 247 246 245 246 246 247 248 248 249 250 251 251 253 255 257 259 260 261 262 263 265 267 268 271
252 250 250 250 250 252 254 254 256 257 257 256 254 257 253 249 250 251 251 250 249 246 245 245 246 247 248 249 250 251 252 252 253 254 256 258 258 259 261 262 264 266 268 270
253 251 251 253 253 253 255 256 257 258 258 258 256 257 255 252 251 252 252 251 249 247 246 245 246 247 248 249 250 251 252 252 252 253 254 256 257 258 260 262 263 265 267 270
257 253 252 253 255 255 254 255 256 260 261 261 259 258 256 254 252 252 252 252 250 249 248 247 247 248 249 249 250 251 252 253 253 253 254 254 255 256 258 260 262 264 266 268
258 259 255 254 255 255 255 254 255 258 260 262 261 259 256 254 254 253 253 252 251 251 250 248 247 248 249 249 250 251 252 254 254 255 254 254 254 255 257 259 261 263 265 267
259 261 258 257 255 254 255 256 255 255 259 261 261 260 258 255 255 255 255 253 252 251 251 250 248 249 249 250 251 251 252 253 254 254 255 255 255 255 257 258 260 263 265 266
263 263 261 258 255 254 253 254 255 255 256 260 263 261 261 260 258 257 256 255 254 253 252 251 250 249 249 250 250 251 251 251 252 253 254 255 255 256 258 259 261 262 264 266
265 265 263 260 258 256 256 256 257 258 258 259 261 262 262 262 261 260 259 257 256 253 252 251 251 250 250 250 250 250 250 251 251 252 253 254 255 255 256 258 259 261 264 266
267 267 265 262 259 258 257 257 258 258 258 259 259 261 261 262 262 261 260 258 256 254 252 251 251 251 250 250 251 250 250 251 251 252 253 254 254 255 255 257 259 261 263 265
267 266 264 265 264 262 260 258 258 258 258 259 259 260 258 260 262 261 260 259 257 255 253 252 252 252 251 251 250 250 250 250 250 251 252 253 254 254 255 256 258 260 262 264
265 264 263 263 263 263 261 260 258 258 258 260 260 260 259 260 261 260 259 258 257 256 254 252 251 250 249 249 250 250 249 250 250 251 252 254 255 255 256 257 258 260 262 265
265 266 264 263 263 262 261 262 262 261 260 261 261 259 259 261 261 260 259 258 257 256 255 253 251 250 249 248 249 250 250 250 250 252 253 254 256 257 258 259 259 261 263 265
265 267 267 265 264 263 262 263 265 266 264 263 263 261 259 260 261 259 259 258 257 255 254 253 252 252 252 251 250 250 250 251 252 253 253 254 256 258 259 260 262 263 264 265
266 267 268 268 265 264 268 268 268 268 267 266 264 262 261 260 260 259 258 258 257 256 255 254 254 252 252 252 251 251 250 250 251 252 253 254 255 257 259 261 262 263 265 266
268 268 269 268 268 269 268 270 272 271 268 267 266 264 263 261 260 259 258 258 257 256 256 255 255 253 252 252 251 251 251 250 250 252 253 254 256 258 260 262 263 264 265 267
267 269 269 269 270 271 271 272 273 272 269 267 266 265 263 262 262 260 260 260 259 258 257 256 254 253 252 250 251 251 252 252 252 253 254 255 257 259 260 262 263 264 265 266
269 268 269 270 270 271 273 275 273 271 270 268 266 265 264 264 264 263 262 262 261 260 259 258 256 255 253 252 252 253 253 254 254 254 255 256 258 260 260 262 263 264 265 266
273 272 272 271 270 272 273 272 271 271 270 268 267 266 265 264 264 264 263 263 262 262 261 259 258 256 255 253 253 254 255 255 255 256 257 257 258 259 260 261 262 264 265 266
271 272 274 273 272 273 272 271 271 271 270 270 270 268 267 266 266 266 265 263 262 262 262 261 259 258 257 256 255 256 256 256 257 257 258 259 259 259 260 261 262 264 266 267
272 272 272 274 274 272 271 269 269 270 269 269 269 268 266 267 267 267 266 265 264 263 263 263 261 260 259 257 256 256 256 257 257 257 257 258 259 260 261 261 262 264 266 267
273 272 272 273 273 271 269 267 267 269 269 269 270 270 269 269 267 265 265 264 264 264 264 263 262 261 260 258 257 256 257 257 257 257 257 258 260 261 262 262 263 264 265 266
273 272 272 272 271 269 268 267 268 269 269 269 270 270 269 269 267 266 265 264 264 266 266 266 265 262 261 259 259 258 258 259 258 258 258 258 260 261 261 262 263 264 265 267